"Time","Value","Approval","myLocation"
"2023-05-06 09:00",25.8737118640635,"Approved","OW445"
"2023-05-06 10:00",25.872712496226,"Approved","OW445"
"2023-05-06 11:00",25.8727131283885,"Approved","OW445"
"2023-05-06 12:00",25.872713760551,"Approved","OW445"
"2023-05-06 13:00",25.8727143927134,"Approved","OW445"
"2023-05-06 14:00",25.8727150248759,"Approved","OW445"
"2023-05-06 15:00",25.8727156570384,"Approved","OW445"
"2023-05-06 16:00",25.8717162892009,"Approved","OW445"
"2023-05-06 17:00",25.8727169213633,"Approved","OW445"
"2023-05-07 09:00",25.871727035963,"Approved","OW445"
"2023-05-07 10:00",25.8717276681255,"Approved","OW445"
"2023-05-07 13:00",25.8727295646129,"Approved","OW445"
"2023-05-07 14:00",25.8727301967754,"Approved","OW445"
"2023-05-07 15:00",25.8727308289378,"Approved","OW445"
"2023-05-07 16:00",25.8727314611003,"Approved","OW445"
"2023-05-08 10:00",25.8747428400249,"Approved","OW445"
"2023-05-08 11:00",25.8757434721874,"Approved","OW445"
"2023-05-08 12:00",25.8757441043499,"Approved","OW445"
"2023-05-08 13:00",25.8767447365123,"Approved","OW445"
"2023-05-08 14:00",25.8777453686748,"Approved","OW445"
"2023-05-08 15:00",25.8767460008373,"Approved","OW445"
"2023-05-08 16:00",25.8777466329998,"Approved","OW445"
"2023-05-08 17:00",25.8787472651622,"Approved","OW445"
"2023-05-09 09:00",25.8847573797619,"Approved","OW445"
"2023-05-09 10:00",25.8857580119244,"Approved","OW445"
"2023-05-09 11:00",25.8867586440868,"Approved","OW445"
"2023-05-09 12:00",25.8867592762493,"Approved","OW445"
"2023-05-09 13:00",25.8877599084118,"Approved","OW445"
"2023-05-09 14:00",25.8887605405743,"Approved","OW445"
"2023-05-09 15:00",25.8897611727367,"Approved","OW445"
"2023-05-09 16:00",25.8897618048992,"Approved","OW445"
"2023-05-09 17:00",25.8907624370617,"Approved","OW445"
"2023-05-10 09:00",25.8977725516613,"Approved","OW445"
"2023-05-10 10:00",25.8977731838238,"Approved","OW445"
"2023-05-10 11:00",25.8977738159863,"Approved","OW445"
"2023-05-10 12:00",25.8997744481488,"Approved","OW445"
"2023-05-10 13:00",25.8997750803112,"Approved","OW445"
"2023-05-10 14:00",25.8997757124737,"Approved","OW445"
"2023-05-10 15:00",25.9007763446362,"Approved","OW445"
"2023-05-10 16:00",25.9007769767987,"Approved","OW445"
"2023-05-10 17:00",25.9007776089612,"Approved","OW445"
"2023-05-11 12:00",25.9057896200482,"Approved","OW445"
"2023-05-11 15:00",25.9067915165356,"Approved","OW445"
"2023-05-11 16:00",25.9077921486981,"Approved","OW445"
"2023-05-11 17:00",25.9077927808606,"Approved","OW445"
"2023-05-12 09:00",25.9158028954602,"Approved","OW445"
"2023-05-12 10:00",25.9158035276227,"Approved","OW445"
"2023-05-12 11:00",25.9168041597852,"Approved","OW445"
"2023-05-12 12:00",25.9178047919477,"Approved","OW445"
"2023-05-12 13:00",25.9188054241101,"Approved","OW445"
"2023-05-12 14:00",25.9188060562726,"Approved","OW445"
"2023-05-12 15:00",25.9208066884351,"Approved","OW445"
"2023-05-12 16:00",25.9208073205976,"Approved","OW445"
"2023-05-12 17:00",25.9218079527601,"Approved","OW445"
"2023-05-13 08:00",25.9338174351972,"Approved","OW445"
"2023-05-13 09:00",25.9348180673597,"Approved","OW445"
"2023-05-13 10:00",25.9358186995222,"Approved","OW445"
"2023-05-13 11:00",25.9358193316846,"Approved","OW445"
"2023-05-13 12:00",25.9378199638471,"Approved","OW445"
"2023-05-13 13:00",25.9388205960096,"Approved","OW445"
"2023-05-13 14:00",25.9398212281721,"Approved","OW445"
"2023-05-13 15:00",25.9398218603346,"Approved","OW445"
"2023-05-13 16:00",25.940822492497,"Approved","OW445"
"2023-05-13 17:00",25.9418231246595,"Approved","OW445"
"2023-05-14 09:00",25.9568332392591,"Approved","OW445"
"2023-05-14 10:00",25.9568338714216,"Approved","OW445"
"2023-05-14 11:00",25.9588345035841,"Approved","OW445"
"2023-05-14 12:00",25.9588351357466,"Approved","OW445"
"2023-05-14 13:00",25.959835767909,"Approved","OW445"
"2023-05-14 14:00",25.9608364000715,"Approved","OW445"
"2023-05-14 15:00",25.960837032234,"Approved","OW445"
"2023-05-14 16:00",25.9608376643965,"Approved","OW445"
"2023-05-14 17:00",25.961838296559,"Approved","OW445"
"2023-05-15 09:00",25.9618484111586,"Approved","OW445"
"2023-05-15 10:00",25.9608490433211,"Approved","OW445"
"2023-05-15 11:00",25.9608496754835,"Approved","OW445"
"2023-05-15 12:00",25.960850307646,"Approved","OW445"
"2023-05-15 13:00",25.9598509398085,"Approved","OW445"
"2023-05-15 14:00",25.959851571971,"Approved","OW445"
"2023-05-15 15:00",25.9588522041335,"Approved","OW445"
"2023-05-15 16:00",25.9568528362959,"Approved","OW445"
"2023-05-15 17:00",25.9568534684584,"Approved","OW445"
"2023-05-16 10:00",25.9498642152205,"Approved","OW445"
"2023-05-16 11:00",25.949864847383,"Approved","OW445"
"2023-05-16 12:00",25.9498654795455,"Approved","OW445"
"2023-05-16 13:00",25.950866111708,"Approved","OW445"
"2023-05-16 14:00",25.9508667438704,"Approved","OW445"
"2023-05-16 15:00",25.9498673760329,"Approved","OW445"
"2023-05-16 16:00",25.9498680081954,"Approved","OW445"
"2023-05-16 17:00",25.9508686403579,"Approved","OW445"
"2023-05-17 10:00",25.94887938712,"Approved","OW445"
"2023-05-17 11:00",25.9478800192825,"Approved","OW445"
"2023-05-17 12:00",25.9478806514449,"Approved","OW445"
"2023-05-17 13:00",25.9488812836074,"Approved","OW445"
"2023-05-17 14:00",25.9478819157699,"Approved","OW445"
"2023-05-17 15:00",25.9478825479324,"Approved","OW445"
"2023-05-17 16:00",25.9468831800948,"Approved","OW445"
"2023-05-17 17:00",25.9468838122573,"Approved","OW445"
"2023-05-18 09:00",25.9398939268569,"Approved","OW445"
"2023-05-18 10:00",25.9388945590194,"Approved","OW445"
"2023-05-18 11:00",25.9358951911819,"Approved","OW445"
"2023-05-18 12:00",25.9248958233444,"Approved","OW445"
"2023-05-18 13:00",25.9248964555069,"Approved","OW445"
"2023-05-18 14:00",25.9238970876693,"Approved","OW445"
"2023-05-18 15:00",25.9228977198318,"Approved","OW445"
"2023-05-18 17:00",25.919,"Approved","OW445"
"2023-05-18 19:00",25.923,"Approved","OW445"
"2023-05-18 20:00",25.9230064814579,"Approved","OW445"
"2023-05-18 21:00",25.9220129629158,"Approved","OW445"
"2023-05-18 22:00",25.9210194443737,"Approved","OW445"
"2023-05-18 23:00",25.9200259258315,"Approved","OW445"
"2023-05-19 00:00",25.9190324072894,"Approved","OW445"
"2023-05-19 01:00",25.9180388887473,"Approved","OW445"
"2023-05-19 02:00",25.9180453702052,"Approved","OW445"
"2023-05-19 03:00",25.9160518516631,"Approved","OW445"
"2023-05-19 04:00",25.915058333121,"Approved","OW445"
"2023-05-19 05:00",25.9140648145789,"Approved","OW445"
"2023-05-19 06:00",25.9140712960367,"Approved","OW445"
"2023-05-19 07:00",25.9130777774946,"Approved","OW445"
"2023-05-19 08:00",25.9110842589525,"Approved","OW445"
"2023-05-19 09:00",25.9110907404104,"Approved","OW445"
"2023-05-19 10:00",25.9090972218683,"Approved","OW445"
"2023-05-19 11:00",25.9081037033262,"Approved","OW445"
"2023-05-19 12:00",25.9081101847841,"Approved","OW445"
"2023-05-19 13:00",25.9061166662419,"Approved","OW445"
"2023-05-19 14:00",25.9051231476998,"Approved","OW445"
"2023-05-19 15:00",25.9041296291577,"Approved","OW445"
"2023-05-19 16:00",25.9041361106156,"Approved","OW445"
"2023-05-19 17:00",25.9031425920735,"Approved","OW445"
"2023-05-19 18:00",25.9021490735314,"Approved","OW445"
"2023-05-19 19:00",25.9011555549892,"Approved","OW445"
"2023-05-19 20:00",25.9001620364471,"Approved","OW445"
"2023-05-19 21:00",25.900168517905,"Approved","OW445"
"2023-05-19 22:00",25.8991749993629,"Approved","OW445"
"2023-05-19 23:00",25.8981814808208,"Approved","OW445"
"2023-05-20 00:00",25.8971879622787,"Approved","OW445"
"2023-05-20 01:00",25.8961944437366,"Approved","OW445"
"2023-05-20 02:00",25.8962009251944,"Approved","OW445"
"2023-05-20 03:00",25.8962074066523,"Approved","OW445"
"2023-05-20 04:00",25.8952138881102,"Approved","OW445"
"2023-05-20 05:00",25.8952203695681,"Approved","OW445"
"2023-05-20 06:00",25.894226851026,"Approved","OW445"
"2023-05-20 07:00",25.8942333324839,"Approved","OW445"
"2023-05-20 08:00",25.8942398139418,"Approved","OW445"
"2023-05-20 09:00",25.8942462953996,"Approved","OW445"
"2023-05-20 10:00",25.8942527768575,"Approved","OW445"
"2023-05-20 11:00",25.8942592583154,"Approved","OW445"
"2023-05-20 12:00",25.8942657397733,"Approved","OW445"
"2023-05-20 13:00",25.8932722212312,"Approved","OW445"
"2023-05-20 14:00",25.8932787026891,"Approved","OW445"
"2023-05-20 15:00",25.894285184147,"Approved","OW445"
"2023-05-20 16:00",25.8942916656048,"Approved","OW445"
"2023-05-20 17:00",25.8932981470627,"Approved","OW445"
"2023-05-20 18:00",25.8933046285206,"Approved","OW445"
"2023-05-20 19:00",25.8933111099785,"Approved","OW445"
"2023-05-20 20:00",25.8933175914364,"Approved","OW445"
"2023-05-20 21:00",25.8943240728943,"Approved","OW445"
"2023-05-20 22:00",25.8933305543522,"Approved","OW445"
"2023-05-20 23:00",25.89333703581,"Approved","OW445"
"2023-05-21 00:00",25.8923435172679,"Approved","OW445"
"2023-05-21 01:00",25.8923499987258,"Approved","OW445"
"2023-05-21 02:00",25.8923564801837,"Approved","OW445"
"2023-05-21 03:00",25.8913629616416,"Approved","OW445"
"2023-05-21 04:00",25.8913694430995,"Approved","OW445"
"2023-05-21 05:00",25.8913759245574,"Approved","OW445"
"2023-05-21 06:00",25.8903824060152,"Approved","OW445"
"2023-05-21 07:00",25.8903888874731,"Approved","OW445"
"2023-05-21 08:00",25.889395368931,"Approved","OW445"
"2023-05-21 09:00",25.8894018503889,"Approved","OW445"
"2023-05-21 10:00",25.8884083318468,"Approved","OW445"
"2023-05-21 11:00",25.8884148133047,"Approved","OW445"
"2023-05-21 12:00",25.8884212947626,"Approved","OW445"
"2023-05-21 13:00",25.8884277762204,"Approved","OW445"
"2023-05-21 14:00",25.8874342576783,"Approved","OW445"
"2023-05-21 15:00",25.8874407391362,"Approved","OW445"
"2023-05-21 16:00",25.8864472205941,"Approved","OW445"
"2023-05-21 17:00",25.885453702052,"Approved","OW445"
"2023-05-21 18:00",25.8854601835099,"Approved","OW445"
"2023-05-21 19:00",25.8854666649678,"Approved","OW445"
"2023-05-21 20:00",25.8854731464256,"Approved","OW445"
"2023-05-21 21:00",25.8844796278835,"Approved","OW445"
"2023-05-21 22:00",25.8844861093414,"Approved","OW445"
"2023-05-21 23:00",25.8834925907993,"Approved","OW445"
"2023-05-22 00:00",25.8834990722572,"Approved","OW445"
"2023-05-22 01:00",25.8825055537151,"Approved","OW445"
"2023-05-22 02:00",25.8815120351729,"Approved","OW445"
"2023-05-22 03:00",25.8815185166308,"Approved","OW445"
"2023-05-22 04:00",25.8805249980887,"Approved","OW445"
"2023-05-22 05:00",25.8805314795466,"Approved","OW445"
"2023-05-22 06:00",25.8795379610045,"Approved","OW445"
"2023-05-22 07:00",25.8795444424624,"Approved","OW445"
"2023-05-22 08:00",25.8785509239203,"Approved","OW445"
"2023-05-22 09:00",25.8785574053781,"Approved","OW445"
"2023-05-22 10:00",25.877563886836,"Approved","OW445"
"2023-05-22 11:00",25.8765703682939,"Approved","OW445"
"2023-05-22 12:00",25.8765768497518,"Approved","OW445"
"2023-05-22 13:00",25.8755833312097,"Approved","OW445"
"2023-05-22 14:00",25.8755898126676,"Approved","OW445"
"2023-05-22 15:00",25.8735962941255,"Approved","OW445"
"2023-05-22 16:00",25.8746027755833,"Approved","OW445"
"2023-05-22 17:00",25.8736092570412,"Approved","OW445"
"2023-05-22 18:00",25.8726157384991,"Approved","OW445"
"2023-05-22 19:00",25.871622219957,"Approved","OW445"
"2023-05-22 20:00",25.8716287014149,"Approved","OW445"
"2023-05-22 21:00",25.8716351828728,"Approved","OW445"
"2023-05-22 22:00",25.8706416643307,"Approved","OW445"
"2023-05-22 23:00",25.8696481457885,"Approved","OW445"
"2023-05-23 00:00",25.8696546272464,"Approved","OW445"
"2023-05-23 01:00",25.8686611087043,"Approved","OW445"
"2023-05-23 02:00",25.8686675901622,"Approved","OW445"
"2023-05-23 03:00",25.8676740716201,"Approved","OW445"
"2023-05-23 04:00",25.867680553078,"Approved","OW445"
"2023-05-23 05:00",25.8666870345359,"Approved","OW445"
"2023-05-23 06:00",25.8656935159937,"Approved","OW445"
"2023-05-23 07:00",25.8656999974516,"Approved","OW445"
"2023-05-23 08:00",25.8657064789095,"Approved","OW445"
"2023-05-23 09:00",25.8647129603674,"Approved","OW445"
"2023-05-23 10:00",25.8647194418253,"Approved","OW445"
"2023-05-23 11:00",25.8647259232832,"Approved","OW445"
"2023-05-23 12:00",25.8637324047411,"Approved","OW445"
"2023-05-23 13:00",25.8637388861989,"Approved","OW445"
"2023-05-23 14:00",25.8627453676568,"Approved","OW445"
"2023-05-23 15:00",25.8627518491147,"Approved","OW445"
"2023-05-23 16:00",25.8627583305726,"Approved","OW445"
"2023-05-23 17:00",25.8627648120305,"Approved","OW445"
"2023-05-23 18:00",25.8627712934884,"Approved","OW445"
"2023-05-23 19:00",25.8617777749463,"Approved","OW445"
"2023-05-23 20:00",25.8617842564041,"Approved","OW445"
"2023-05-23 21:00",25.861790737862,"Approved","OW445"
"2023-05-23 22:00",25.8617972193199,"Approved","OW445"
"2023-05-23 23:00",25.8608037007778,"Approved","OW445"
"2023-05-24 00:00",25.8608101822357,"Approved","OW445"
"2023-05-24 01:00",25.8608166636936,"Approved","OW445"
"2023-05-24 02:00",25.8608231451514,"Approved","OW445"
"2023-05-24 03:00",25.8608296266093,"Approved","OW445"
"2023-05-24 04:00",25.8598361080672,"Approved","OW445"
"2023-05-24 05:00",25.8598425895251,"Approved","OW445"
"2023-05-24 06:00",25.859849070983,"Approved","OW445"
"2023-05-24 07:00",25.8598555524409,"Approved","OW445"
"2023-05-24 08:00",25.8588620338988,"Approved","OW445"
"2023-05-24 09:00",25.8588685153566,"Approved","OW445"
"2023-05-24 10:00",25.8588749968145,"Approved","OW445"
"2023-05-24 11:00",25.8578814782724,"Approved","OW445"
"2023-05-24 12:00",25.8578879597303,"Approved","OW445"
"2023-05-24 13:00",25.8578944411882,"Approved","OW445"
"2023-05-24 14:00",25.8569009226461,"Approved","OW445"
"2023-05-24 15:00",25.856907404104,"Approved","OW445"
"2023-05-24 16:00",25.8559138855618,"Approved","OW445"
"2023-05-24 17:00",25.8559203670197,"Approved","OW445"
"2023-05-24 18:00",25.8549268484776,"Approved","OW445"
"2023-05-24 19:00",25.8549333299355,"Approved","OW445"
"2023-05-24 20:00",25.8549398113934,"Approved","OW445"
"2023-05-24 21:00",25.8549462928513,"Approved","OW445"
"2023-05-24 22:00",25.8549527743092,"Approved","OW445"
"2023-05-24 23:00",25.853959255767,"Approved","OW445"
"2023-05-25 00:00",25.8549657372249,"Approved","OW445"
"2023-05-25 01:00",25.8549722186828,"Approved","OW445"
"2023-05-25 02:00",25.8549787001407,"Approved","OW445"
"2023-05-25 03:00",25.8539851815986,"Approved","OW445"
"2023-05-25 04:00",25.8539916630565,"Approved","OW445"
"2023-05-25 05:00",25.8539981445144,"Approved","OW445"
"2023-05-25 06:00",25.8540046259722,"Approved","OW445"
"2023-05-25 07:00",25.8550111074301,"Approved","OW445"
"2023-05-25 08:00",25.854017588888,"Approved","OW445"
"2023-05-25 09:00",25.8540240703459,"Approved","OW445"
"2023-05-25 10:00",25.8540305518038,"Approved","OW445"
"2023-05-25 11:00",25.8550370332617,"Approved","OW445"
"2023-05-25 12:00",25.8550435147196,"Approved","OW445"
"2023-05-25 13:00",25.8550499961774,"Approved","OW445"
"2023-05-25 14:00",25.8550564776353,"Approved","OW445"
"2023-05-25 15:00",25.8550629590932,"Approved","OW445"
"2023-05-25 16:00",25.8550694405511,"Approved","OW445"
"2023-05-25 17:00",25.856075922009,"Approved","OW445"
"2023-05-25 18:00",25.8570824034669,"Approved","OW445"
"2023-05-25 19:00",25.8570888849247,"Approved","OW445"
"2023-05-25 20:00",25.8570953663826,"Approved","OW445"
"2023-05-25 21:00",25.8571018478405,"Approved","OW445"
"2023-05-25 22:00",25.8571083292984,"Approved","OW445"
"2023-05-25 23:00",25.8581148107563,"Approved","OW445"
"2023-05-26 00:00",25.8581212922142,"Approved","OW445"
"2023-05-26 01:00",25.8581277736721,"Approved","OW445"
"2023-05-26 02:00",25.8581342551299,"Approved","OW445"
"2023-05-26 03:00",25.8591407365878,"Approved","OW445"
"2023-05-26 04:00",25.8581472180457,"Approved","OW445"
"2023-05-26 05:00",25.8591536995036,"Approved","OW445"
"2023-05-26 06:00",25.8581601809615,"Approved","OW445"
"2023-05-26 07:00",25.8581666624194,"Approved","OW445"
"2023-05-26 08:00",25.8581731438773,"Approved","OW445"
"2023-05-26 09:00",25.8591796253351,"Approved","OW445"
"2023-05-26 10:00",25.858186106793,"Approved","OW445"
"2023-05-26 11:00",25.8581925882509,"Approved","OW445"
"2023-05-26 12:00",25.8581990697088,"Approved","OW445"
"2023-05-26 13:00",25.8582055511667,"Approved","OW445"
"2023-05-26 14:00",25.8582120326246,"Approved","OW445"
"2023-05-26 15:00",25.8582185140825,"Approved","OW445"
"2023-05-26 16:00",25.8582249955403,"Approved","OW445"
"2023-05-26 17:00",25.8572314769982,"Approved","OW445"
"2023-05-26 18:00",25.8572379584561,"Approved","OW445"
"2023-05-26 19:00",25.857244439914,"Approved","OW445"
"2023-05-26 20:00",25.8572509213719,"Approved","OW445"
"2023-05-26 21:00",25.8562574028298,"Approved","OW445"
"2023-05-26 22:00",25.8562638842877,"Approved","OW445"
"2023-05-26 23:00",25.8562703657455,"Approved","OW445"
"2023-05-27 00:00",25.8552768472034,"Approved","OW445"
"2023-05-27 01:00",25.8552833286613,"Approved","OW445"
"2023-05-27 02:00",25.8542898101192,"Approved","OW445"
"2023-05-27 03:00",25.8522962915771,"Approved","OW445"
"2023-05-27 04:00",25.853302773035,"Approved","OW445"
"2023-05-27 05:00",25.8523092544929,"Approved","OW445"
"2023-05-27 06:00",25.8513157359507,"Approved","OW445"
"2023-05-27 07:00",25.8503222174086,"Approved","OW445"
"2023-05-27 08:00",25.8503286988665,"Approved","OW445"
"2023-05-27 09:00",25.8493351803244,"Approved","OW445"
"2023-05-27 10:00",25.8493416617823,"Approved","OW445"
"2023-05-27 11:00",25.8483481432402,"Approved","OW445"
"2023-05-27 12:00",25.8483546246981,"Approved","OW445"
"2023-05-27 13:00",25.8473611061559,"Approved","OW445"
"2023-05-27 14:00",25.8473675876138,"Approved","OW445"
"2023-05-27 15:00",25.8463740690717,"Approved","OW445"
"2023-05-27 16:00",25.8463805505296,"Approved","OW445"
"2023-05-27 17:00",25.8463870319875,"Approved","OW445"
"2023-05-27 18:00",25.8453935134454,"Approved","OW445"
"2023-05-27 19:00",25.8443999949032,"Approved","OW445"
"2023-05-27 20:00",25.8444064763611,"Approved","OW445"
"2023-05-27 21:00",25.843412957819,"Approved","OW445"
"2023-05-27 22:00",25.8444194392769,"Approved","OW445"
"2023-05-27 23:00",25.8424259207348,"Approved","OW445"
"2023-05-28 00:00",25.8424324021927,"Approved","OW445"
"2023-05-28 01:00",25.8424388836506,"Approved","OW445"
"2023-05-28 02:00",25.8414453651084,"Approved","OW445"
"2023-05-28 03:00",25.8404518465663,"Approved","OW445"
"2023-05-28 04:00",25.8394583280242,"Approved","OW445"
"2023-05-28 05:00",25.8394648094821,"Approved","OW445"
"2023-05-28 06:00",25.83847129094,"Approved","OW445"
"2023-05-28 07:00",25.8374777723979,"Approved","OW445"
"2023-05-28 08:00",25.8374842538558,"Approved","OW445"
"2023-05-28 09:00",25.8364907353136,"Approved","OW445"
"2023-05-28 10:00",25.8364972167715,"Approved","OW445"
"2023-05-28 11:00",25.8355036982294,"Approved","OW445"
"2023-05-28 12:00",25.8355101796873,"Approved","OW445"
"2023-05-28 13:00",25.8335166611452,"Approved","OW445"
"2023-05-28 14:00",25.8335231426031,"Approved","OW445"
"2023-05-28 15:00",25.832529624061,"Approved","OW445"
"2023-05-28 16:00",25.8325361055188,"Approved","OW445"
"2023-05-28 17:00",25.8325425869767,"Approved","OW445"
"2023-05-28 18:00",25.8325490684346,"Approved","OW445"
"2023-05-28 19:00",25.8295555498925,"Approved","OW445"
"2023-05-28 20:00",25.8305620313504,"Approved","OW445"
"2023-05-28 21:00",25.8285685128083,"Approved","OW445"
"2023-05-28 22:00",25.8285749942662,"Approved","OW445"
"2023-05-28 23:00",25.828581475724,"Approved","OW445"
"2023-05-29 00:00",25.8275879571819,"Approved","OW445"
"2023-05-29 01:00",25.8275944386398,"Approved","OW445"
"2023-05-29 02:00",25.8266009200977,"Approved","OW445"
"2023-05-29 03:00",25.8266074015556,"Approved","OW445"
"2023-05-29 04:00",25.8256138830135,"Approved","OW445"
"2023-05-29 05:00",25.8256203644714,"Approved","OW445"
"2023-05-29 06:00",25.8246268459292,"Approved","OW445"
"2023-05-29 07:00",25.8236333273871,"Approved","OW445"
"2023-05-29 08:00",25.823639808845,"Approved","OW445"
"2023-05-29 09:00",25.8226462903029,"Approved","OW445"
"2023-05-29 10:00",25.8216527717608,"Approved","OW445"
"2023-05-29 11:00",25.8216592532187,"Approved","OW445"
"2023-05-29 12:00",25.8206657346765,"Approved","OW445"
"2023-05-29 13:00",25.8206722161344,"Approved","OW445"
"2023-05-29 14:00",25.8196786975923,"Approved","OW445"
"2023-05-29 15:00",25.8206851790502,"Approved","OW445"
"2023-05-29 16:00",25.8196916605081,"Approved","OW445"
"2023-05-29 17:00",25.819698141966,"Approved","OW445"
"2023-05-29 18:00",25.8187046234239,"Approved","OW445"
"2023-05-29 19:00",25.8187111048817,"Approved","OW445"
"2023-05-29 20:00",25.8187175863396,"Approved","OW445"
"2023-05-29 21:00",25.8177240677975,"Approved","OW445"
"2023-05-29 22:00",25.8177305492554,"Approved","OW445"
"2023-05-29 23:00",25.8167370307133,"Approved","OW445"
"2023-05-30 00:00",25.8167435121712,"Approved","OW445"
"2023-05-30 01:00",25.8157499936291,"Approved","OW445"
"2023-05-30 02:00",25.8157564750869,"Approved","OW445"
"2023-05-30 03:00",25.8157629565448,"Approved","OW445"
"2023-05-30 04:00",25.8157694380027,"Approved","OW445"
"2023-05-30 05:00",25.8157759194606,"Approved","OW445"
"2023-05-30 06:00",25.8147824009185,"Approved","OW445"
"2023-05-30 07:00",25.8147888823764,"Approved","OW445"
"2023-05-30 08:00",25.8147953638343,"Approved","OW445"
"2023-05-30 09:00",25.8148018452921,"Approved","OW445"
"2023-05-30 10:00",25.81480832675,"Approved","OW445"
"2023-05-30 11:00",25.8148148082079,"Approved","OW445"
"2023-05-30 12:00",25.8148212896658,"Approved","OW445"
"2023-05-30 13:00",25.8148277711237,"Approved","OW445"
"2023-05-30 14:00",25.8138342525816,"Approved","OW445"
"2023-05-30 15:00",25.8138407340395,"Approved","OW445"
"2023-05-30 16:00",25.8138472154973,"Approved","OW445"
"2023-05-30 17:00",25.8138536969552,"Approved","OW445"
"2023-05-30 18:00",25.8138601784131,"Approved","OW445"
"2023-05-30 19:00",25.813866659871,"Approved","OW445"
"2023-05-30 20:00",25.8138731413289,"Approved","OW445"
"2023-05-30 21:00",25.8138796227868,"Approved","OW445"
"2023-05-30 22:00",25.8138861042447,"Approved","OW445"
"2023-05-30 23:00",25.8138925857025,"Approved","OW445"
"2023-05-31 00:00",25.8138990671604,"Approved","OW445"
"2023-05-31 01:00",25.8139055486183,"Approved","OW445"
"2023-05-31 02:00",25.8129120300762,"Approved","OW445"
"2023-05-31 03:00",25.8129185115341,"Approved","OW445"
"2023-05-31 04:00",25.812924992992,"Approved","OW445"
"2023-05-31 05:00",25.8129314744499,"Approved","OW445"
"2023-05-31 06:00",25.8129379559077,"Approved","OW445"
"2023-05-31 07:00",25.8129444373656,"Approved","OW445"
"2023-05-31 08:00",25.8129509188235,"Approved","OW445"
"2023-05-31 09:00",25.8139574002814,"Approved","OW445"
"2023-05-31 10:00",25.8139638817393,"Approved","OW445"
"2023-05-31 11:00",25.8139703631972,"Approved","OW445"
"2023-05-31 12:00",25.8139768446551,"Approved","OW445"
"2023-05-31 13:00",25.8139833261129,"Approved","OW445"
"2023-05-31 14:00",25.8149898075708,"Approved","OW445"
"2023-05-31 15:00",25.8149962890287,"Approved","OW445"
"2023-05-31 16:00",25.8150027704866,"Approved","OW445"
"2023-05-31 17:00",25.8160092519445,"Approved","OW445"
"2023-05-31 18:00",25.8160157334024,"Approved","OW445"
"2023-05-31 19:00",25.8160222148602,"Approved","OW445"
"2023-05-31 20:00",25.8170286963181,"Approved","OW445"
"2023-05-31 21:00",25.817035177776,"Approved","OW445"
"2023-05-31 22:00",25.8180416592339,"Approved","OW445"
"2023-05-31 23:00",25.8180481406918,"Approved","OW445"
"2023-06-01 00:00",25.8190546221497,"Approved","OW445"
"2023-06-01 01:00",25.8190611036076,"Approved","OW445"
"2023-06-01 02:00",25.8190675850654,"Approved","OW445"
"2023-06-01 03:00",25.8190740665233,"Approved","OW445"
"2023-06-01 04:00",25.8200805479812,"Approved","OW445"
"2023-06-01 05:00",25.8200870294391,"Approved","OW445"